Regional Weather Roundup
Issued by NWS Albany, NY

Home | Current Version | Previous Version | Text Only | Print | Product List | Glossary On
Versions: 1 2 3 4 5 6 7 8 9 10 11 12 13 14 15 16 17 18 19 20 21 22 23 24 25 26 27 28 29 30 31 32 33 34 35 36 37 38 39 40 41 42 43 44 45 46 47 48 49 50
000
ASUS41 KALY 271510
RWRALY

NEW YORK STATE HOURLY WEATHER ROUNDUP
NATIONAL WEATHER SERVICE ALBANY NY
1100 AM EDT WED AUG 27 2014

NOTE: "FAIR" INDICATES FEW OR NO CLOUDS BELOW 12,000 FEET WITH NO
SIGNIFICANT WEATHER AND/OR NO OBSTRUCTIONS TO VISIBILITY.

NYZ032-033-038>043-046>054-057>066-NYZ062>081-271600-
EAST


CITY           SKY/WX    TMP DP  RH WIND       PRES   REMARKS
ALBANY         PTSUNNY   79  65  62 S6        29.99S
GLENS FALLS    MOSUNNY   78  66  66 S7        29.95F
POUGHKEEPSIE   SUNNY     80  65  59 CALM      29.99F
NEWBURGH       SUNNY     79  66  65 W10       30.03S
MONTGOMERY     SUNNY     81  65  58 SW6       30.00F
WHITE PLAINS   SUNNY     81  62  52 CALM      30.02F
ISLIP          SUNNY     79  66  64 SW10      30.01F
NEW YORK CITY  MOSUNNY   83  60  45 W8        30.01F
CENTRAL PARK   SUNNY     82  62  50 W3        30.05F
$$

NYZ005>009-017-018-044>046-055-056-271600-
CENTRAL


CITY           SKY/WX    TMP DP  RH WIND       PRES   REMARKS
FULTON         CLOUDY    72  64  76 NW10      30.03R
SYRACUSE       CLOUDY    75  68  78 NW9       30.01S
ROME           CLOUDY    74  68  81 W7        30.01S
ELMIRA         CLOUDY    76  68  76 NW5       30.04R
BINGHAMTON     CLOUDY    72  65  78 SW5       30.06S
MONTICELLO     SUNNY     75  64  69 NW8       30.07F
$$

NYZ026>034-041>043-271600-
NORTH


CITY           SKY/WX    TMP DP  RH WIND       PRES   REMARKS
WATERTOWN      SUNNY     75  62  64 W7        30.00R
FORT DRUM      NOT AVBL
MASSENA        SUNNY     73  60  63 NW7       29.98R
SARANAC LAKE   PTSUNNY   71  63  75 W8        29.99S
PLATTSBURGH    PTSUNNY   79  66  64 VRB5      29.94S
$$

NYZ001>004-010>016-019>021-271600-
WEST


CITY           SKY/WX    TMP DP  RH WIND       PRES   REMARKS
NIAGARA FALLS  PTSUNNY   69  58  67 N6        30.06S
BUFFALO        PTSUNNY   70  58  65 N8        30.06S
DUNKIRK        CLOUDY    73  61  65 W9        30.07F
JAMESTOWN      CLOUDY    72  66  83 NW3       30.11R
WELLSVILLE     CLOUDY    69  66  90 W7        30.12S
ROCHESTER      CLOUDY    71  62  73 NW7       30.05S
PENN YAN       CLOUDY    72  66  81 NW8       30.06R
$$

             KEY
       WCI = WIND CHILL INDEX
       VSB = VISIBILITY
       HX  = HEAT INDEX
$$



USA.gov is the U.S. government's official web portal to all federal, state and local government web resources and services.